Powrót do katalogu

SL-16 R/B

AktywnySSO
NORAD 25861·ROCKET BODY·🇷🇺 Russia

Wystrzelony Jul 17, 1999 z Baikonur Cosmodrome

Loading…

Następne Przeloty (najbliższe 24 godziny)

TLE

ŚwieżeSource: Space-Track

Epoka: Sep 14, 2026, 02:15 UTC

1 25861U 99039B   26257.09411516  .00000327  00000-0  48070-4 0  9996
2 25861  97.9746 315.6629 0014930  11.2744 348.8800 14.81918804464766

Śledź SL-16 R/B w czasie rzeczywistym z AllMySat

Download on the App Store